Regional Weather Roundup
Issued by NWS Newport/Morehead, NC

Current Version | Previous Version | Graphics & Text | Print | Product List | Glossary Off
Versions: 1 2 3 4 5 6 7 8 9 10 11 12 13 14 15 16 17 18 19 20 21 22 23 24 25 26 27 28 29 30 31 32 33 34 35 36 37 38 39 40 41 42 43 44 45 46 47 48 49 50

000
ASUS42 KMHX 110313
RWRMHX
WEATHER ROUNDUP FOR EASTERN NORTH CAROLINA
NATIONAL WEATHER SERVICE NEWPORT/MOREHEAD CITY NC
1000 PM EST SUN DEC 10 2017

NOTE: "FAIR" INDICATES FEW OR NO CLOUDS BELOW 12,000 FEET
WITH NO SIGNIFICANT WEATHER AND/OR OBSTRUCTIONS TO VISIBILITY

NCZ015>017-031-032-045>047-102-103-110400-
NORTH COAST

CITY           SKY/WX    TMP DP  RH WIND       PRES   REMARKS
EDENTON        CLEAR     40  32  74 SW6       30.18S
ELIZABETH CITY CLEAR     35  30  82 SW5       30.17S
KITTY HAWK     CLEAR     38  29  71 CALM      30.16S
MANTEO         CLEAR     38  31  73 W5        30.18S

$$

NCZ045>047-081-094-103-104-110400-
CENTRAL COAST

CITY           SKY/WX    TMP DP  RH WIND       PRES   REMARKS
FRISCO         CLEAR     41  31  67 W7        30.19S

$$

NCZ095-097-098-100-101-110400-
SOUTHERN COAST

CITY           SKY/WX    TMP DP  RH WIND       PRES   REMARKS
BEAUFORT       CLEAR     38  29  70 W6        30.20S
CEDAR ISLAND   NOT AVBL
JACKSONVILLE   CLEAR     32  29  88 SW3       30.20R
PINEY ISLAND   NOT AVBL
WILMINGTON     CLEAR     34  31  88 SW5       30.21S


$$

NCZ011>013-027>030-043-044-078>080-089-090>093-098-110400-
COASTAL PLAIN

CITY           SKY/WX    TMP DP  RH WIND       PRES   REMARKS
AHOSKIE        CLEAR     28  27  99 CALM      30.17S
CLINTON        CLEAR     33  29  85 CALM      30.20S
ELIZABETHTOWN  NOT AVBL
GOLDSBORO      CLEAR     33  26  75 CALM      30.17S
GREENVILLE     CLEAR     32  28  86 CALM      30.19S
HAVELOCK       CLEAR     32  30  92 CALM      30.21S
KENANSVILLE    CLEAR     30  28  93 CALM      30.20S
KINSTON        CLEAR     30  28  93 SW3       30.20S
NEW BERN       CLEAR     29  29 100 CALM      30.21R
RICHLANDS      CLEAR     28  25  88 S3        30.21S
ROCKY MOUNT    CLEAR     30  27  88 S3        30.17R
WASHINGTON     CLEAR     34  27  77 SW3       30.19S
WHITEVILLE     CLEAR     33  30  91 SW3       30.20S

$$

AMZ130-135-150-152-154-156-158-170-250-252-270-ANZ085-086-088-633-658-670-110400-
MARINE OBSERVATIONS

STATION/POSITION TIME  TEMP    WIND        PRES    WAVE   SWELL
                       AIR SEA DIR/SP/G            HT/PER HT/PER
                 (UTC) (F)     (DEG/KT/KT) (MB)    (FT/S) (FT/S)
CHESAPEAKE LIGHT NOT AVBL
64 E VA BEACH    0250   45 60  260/ 16/ 21 1021.2    4/ 8   3/ 8
DUCK             0242   42 53  270/  8/ 10 1021.0
2 E DUCK         0300      54                N/A     2/ 9
OREGON INLET     0242   41 48  250/  9/ 14 1021.6
13E OREGON INLT  0248      57                N/A     4/ 8   3/ 8
HATTERAS CG      0242   42 53  240/  5/  9 1022.0
DIAMOND BUOY     0300   48 75  260/ 12/ 19 1022.2
CAPE LOOKOUT     0300          260/  9/ 11 1022.7
BEAUFORT LAB     0242   41 51  310/  2/  5 1022.5
30 SE NEW RVR IN 0208   49 67  300/ 12/ 16 1022.9
30 SE NEW RVR IN 0300      67                N/A     3/ 7
27 SE WRIGHTSVLE 0208   50 67  270/ 12/ 17 1022.8
5 SE WRIGHTSVLE  0208   48 58  260/ 10/ 14 1022.6
225 S CAPE HAT   0250   58 76  330/  8/ 12 1022.9    7/ 8   7/ 8
41 SE CHARLESTON 0250      73  270/ 14/ 19 1023.7    2/ 9   2/ 9

$$




USA.gov is the U.S. government's official web portal to all federal, state and local government web resources and services.